WA6MHA-11 Weather Reports


time (UTC)temp
C
wind
direction
speed
KPH
gust
KPH
rain 1hr
cm
rain 24hr
cm
rain mn
cm
humidity
%
barometer
mb
20260510063235 14 135 1.6 1.6 0.00 0.00 0.00 54 1014.3
20260510060833 15 81 0.0 0.0 0.00 0.00 0.00 53 1014.3
20260510060431 15 42 0.0 1.6 0.00 0.00 0.00 53 1014.3
20260510060025 15 45 0.0 1.6 0.00 0.00 0.00 53 1014.3
20260510055624 15 135 1.6 3.2 0.00 0.00 0.00 53 1014.4
20260510055223 15 135 1.6 1.6 0.00 0.00 0.00 53 1014.3
20260510054822 15 135 0.0 0.0 0.00 0.00 0.00 52 1014.3
20260510054420 15 180 0.0 1.6 0.00 0.00 0.00 52 1014.3
20260510054021 15 180 1.6 1.6 0.00 0.00 0.00 52 1014.3
20260510053216 15 191 1.6 1.6 0.00 0.00 0.00 52 1014.3
20260510052817 15 182 0.0 1.6 0.00 0.00 0.00 52 1014.4
20260510052416 15 180 0.0 1.6 0.00 0.00 0.00 52 1014.4
20260510052413 15 180 0.0 1.6 0.00 0.00 0.00 52 1014.4
20260510052012 15 135 0.0 3.2 0.00 0.00 0.00 52 1014.4
20260510051611 15 186 0.0 1.6 0.00 0.00 0.00 51 1014.4
20260510051211 15 230 0.0 1.6 0.00 0.00 0.00 51 1014.5
20260510050810 15 135 1.6 1.6 0.00 0.00 0.00 51 1014.5
20260510050407 15 303 0.0 0.0 0.00 0.00 0.00 51 1014.4
20260510044804 16 78 1.6 4.8 0.00 0.00 0.00 50 1014.3
20260510044401 16 130 4.8 4.8 0.00 0.00 0.00 50 1014.2
20260510044001 16 135 3.2 4.8 0.00 0.00 0.00 50 1014.2
20260510043600 16 135 4.8 6.4 0.00 0.00 0.00 50 1014.3
20260510043204 16 135 4.8 8.0 0.00 0.00 0.00 49 1014.2
20260510042756 16 126 6.4 6.4 0.00 0.00 0.00 49 1014.2
20260510042354 16 123 6.4 11.3 0.00 0.00 0.00 49 1014.1
20260510041953 16 121 8.0 8.0 0.00 0.00 0.00 49 1014.2
20260510041554 16 123 4.8 6.4 0.00 0.00 0.00 48 1014.1
20260510041150 16 119 3.2 4.8 0.00 0.00 0.00 48 1014.0
20260510040749 16 128 6.4 6.4 0.00 0.00 0.00 48 1014.0
20260510035546 16 114 8.0 8.0 0.00 0.00 0.00 47 1013.8
20260510035144 16 112 4.8 6.4 0.00 0.00 0.00 46 1013.8
20260510034742 16 114 4.8 9.7 0.00 0.00 0.00 46 1013.8
20260510034341 16 128 8.0 9.7 0.00 0.00 0.00 46 1013.7
20260510033940 16 108 6.4 9.7 0.00 0.00 0.00 45 1013.7
20260510033539 17 105 8.0 9.7 0.00 0.00 0.00 45 1013.6
20260510032739 17 123 6.4 6.4 0.00 0.00 0.00 44 1013.5
20260510032335 17 112 3.2 8.0 0.00 0.00 0.00 44 1013.5
20260510031934 17 110 6.4 9.7 0.00 0.00 0.00 43 1013.4
20260510031532 17 110 6.4 8.0 0.00 0.00 0.00 43 1013.2
20260510031131 18 135 9.7 11.3 0.00 0.00 0.00 42 1013.2
20260510030731 18 135 8.0 14.5 0.00 0.00 0.00 41 1013.2
20260510030329 18 112 4.8 11.3 0.00 0.00 0.00 41 1013.1
20260510025927 18 123 9.7 11.3 0.00 0.00 0.00 40 1013.1
20260510025526 19 135 8.0 11.3 0.00 0.00 0.00 40 1013.0
20260510025126 19 135 8.0 9.7 0.00 0.00 0.00 39 1012.9
20260510024724 19 135 11.3 11.3 0.00 0.00 0.00 38 1012.8
20260510024322 19 110 9.7 11.3 0.00 0.00 0.00 38 1012.8
20260510023921 20 108 9.7 9.7 0.00 0.00 0.00 38 1012.8
20260510023524 20 128 9.7 11.3 0.00 0.00 0.00 37 1012.6
20260510023118 20 90 8.0 9.7 0.00 0.00 0.00 36 1012.7
20260510021916 21 126 11.3 14.5 0.00 0.00 0.00 34 1012.5
20260510021111 21 94 11.3 16.1 0.00 0.00 0.00 33 1012.4
20260510020710 22 99 22.5 27.4 0.00 0.00 0.00 33 1012.3
20260510020312 22 112 6.4 19.3 0.00 0.00 0.00 32 1012.3
20260510015508 22 112 12.9 20.9 0.00 0.00 0.00 32 1012.2
20260510015106 23 108 11.3 20.9 0.00 0.00 0.00 31 1012.3
20260510014704 23 135 9.7 20.9 0.00 0.00 0.00 31 1012.3
20260510014303 23 135 12.9 14.5 0.00 0.00 0.00 30 1012.3
20260510013903 24 135 12.9 14.5 0.00 0.00 0.00 30 1012.2
20260510013059 24 139 12.9 19.3 0.00 0.00 0.00 30 1012.2
20260510012659 24 135 14.5 30.6 0.00 0.00 0.00 29 1012.1
20260510012256 25 135 11.3 19.3 0.00 0.00 0.00 29 1012.1
20260510011855 25 135 12.9 22.5 0.00 0.00 0.00 29 1012.2
20260510011454 25 139 8.0 12.9 0.00 0.00 0.00 29 1012.1
20260510011053 26 135 9.7 20.9 0.00 0.00 0.00 28 1012.1
20260510010652 26 135 20.9 20.9 0.00 0.00 0.00 28 1012.0
20260510004645 27 130 11.3 14.5 0.00 0.00 0.00 27 1012.0
20260510003845 27 121 9.7 14.5 0.00 0.00 0.00 27 1012.0
20260510003441 27 108 11.3 12.9 0.00 0.00 0.00 26 1012.1
20260510003039 28 135 14.5 16.1 0.00 0.00 0.00 26 1012.1
20260510002641 28 144 9.7 12.9 0.00 0.00 0.00 26 1012.1
20260510002237 28 147 9.7 12.9 0.00 0.00 0.00 25 1012.1
20260510001839 29 148 11.3 14.5 0.00 0.00 0.00 26 1012.0
20260510001435 29 135 14.5 17.7 0.00 0.00 0.00 25 1012.0
20260510001033 29 135 11.3 14.5 0.00 0.00 0.00 25 1012.0
20260510000233 29 139 6.4 16.1 0.00 0.00 0.00 25 1012.2
20260509235829 30 139 14.5 17.7 0.00 0.00 0.00 25 1012.1
20260509235430 30 135 17.7 17.7 0.00 0.00 0.00 25 1012.1
20260509234626 30 171 3.2 14.5 0.00 0.00 0.00 25 1012.1
20260509234225 30 153 14.5 20.9 0.00 0.00 0.00 24 1012.1
20260509233824 29 180 6.4 16.1 0.00 0.00 0.00 25 1012.1
20260509233422 29 135 12.9 25.7 0.00 0.00 0.00 25 1012.2
20260509233021 30 123 11.3 20.9 0.00 0.00 0.00 24 1012.1
20260509232619 29 99 9.7 24.1 0.00 0.00 0.00 24 1012.3
20260509231416 30 135 14.5 24.1 0.00 0.00 0.00 25 1012.3
20260509225412 32 177 9.7 11.3 0.00 0.00 0.00 25 1012.4
20260509225008 31 180 4.8 12.9 0.00 0.00 0.00 25 1012.4
20260509224212 30 135 9.7 14.5 0.00 0.00 0.00 25 1012.5
20260509222159 29 112 14.5 16.1 0.00 0.00 0.00 25 1012.7
20260509221400 30 139 16.1 17.7 0.00 0.00 0.00 25 1012.8
20260509220553 30 146 14.5 16.1 0.00 0.00 0.00 25 1012.9
20260509220152 30 184 8.0 14.5 0.00 0.00 0.00 25 1013.0
20260509215752 29 173 6.4 25.7 0.00 0.00 0.00 25 1013.0
20260509214948 29 135 9.7 25.7 0.00 0.00 0.00 25 1013.1
20260509213746 29 135 12.9 16.1 0.00 0.00 0.00 26 1013.2
20260509213348 30 135 14.5 16.1 0.00 0.00 0.00 26 1013.3
20260509212554 31 138 4.8 17.7 0.00 0.00 0.00 26 1013.3
20260509210953 30 137 12.9 14.5 0.00 0.00 0.00 27 1013.5
20260509210539 30 135 11.3 17.7 0.00 0.00 0.00 26 1013.5
20260509210141 30 135 8.0 17.7 0.00 0.00 0.00 27 1013.6
20260509205731 30 215 3.2 14.5 0.00 0.00 0.00 27 1013.6
20260509204528 30 139 9.7 16.1 0.00 0.00 0.00 27 1013.8
20260509204127 30 162 1.6 11.3 0.00 0.00 0.00 27 1013.8
20260509203725 29 130 3.2 14.5 0.00 0.00 0.00 27 1013.8
20260509202521 29 112 16.1 17.7 0.00 0.00 0.00 27 1013.7
20260509202120 29 130 9.7 17.7 0.00 0.00 0.00 27 1013.9
20260509201724 29 128 12.9 12.9 0.00 0.00 0.00 27 1013.9
20260509201722 29 128 12.9 12.9 0.00 0.00 0.00 27 1013.9
20260509201319 29 94 6.4 19.3 0.00 0.00 0.00 27 1013.9
20260509200917 31 119 8.0 12.9 0.00 0.00 0.00 27 1013.9
20260509200514 30 180 4.8 14.5 0.00 0.00 0.00 27 1013.9
20260509195712 29 28 3.2 14.5 0.00 0.00 0.00 28 1013.9
20260509195311 30 90 8.0 12.9 0.00 0.00 0.00 28 1013.9
20260509194910 29 76 6.4 14.5 0.00 0.00 0.00 28 1013.9
20260509194509 30 108 4.8 8.0 0.00 0.00 0.00 28 1014.0
20260509194108 30 83 4.8 14.5 0.00 0.00 0.00 28 1013.9
20260509193305 32 132 9.7 9.7 0.00 0.00 0.00 28 1014.2
20260509192908 31 153 4.8 9.7 0.00 0.00 0.00 28 1014.2
20260509192502 31 180 1.6 6.4 0.00 0.00 0.00 28 1014.2
20260509192100 30 119 3.2 8.0 0.00 0.00 0.00 29 1014.2
20260509191700 30 130 6.4 16.1 0.00 0.00 0.00 29 1014.2
20260509191258 30 182 11.3 12.9 0.00 0.00 0.00 29 1014.2
20260509190457 30 135 6.4 9.7 0.00 0.00 0.00 29 1014.2
20260509185653 30 191 3.2 12.9 0.00 0.00 0.00 29 1014.4
20260509185251 30 97 6.4 8.0 0.00 0.00 0.00 29 1014.5
20260509184850 31 139 4.8 9.7 0.00 0.00 0.00 30 1014.6
20260509184450 31 310 0.0 3.2 0.00 0.00 0.00 30 1014.6
20260509183647 30 261 3.2 8.0 0.00 0.00 0.00 30 1014.6
20260509183245 29 191 6.4 6.4 0.00 0.00 0.00 31 1014.6
20260509181641 28 144 3.2 6.4 0.00 0.00 0.00 32 1014.8
20260509174831 28 182 0.0 4.8 0.00 0.00 0.00 35 1015.0
20260509173221 26 168 3.2 4.8 0.00 0.00 0.00 37 1015.1
20260509172421 24 205 1.6 4.8 0.00 0.00 0.00 39 1015.1
20260509171615 394 28 1.6 3.2 0.00 0.00 0.00 41 1015.0
20260509171213 24 180 3.2 8.0 0.00 0.00 0.00 42 1015.0
20260509170812 24 311 0.0 4.8 0.00 0.00 0.00 43 1015.0
20260509170414 23 242 3.2 6.4 0.00 0.00 0.00 44 1015.0
20260509164807 22 274 4.8 8.0 0.00 0.00 0.00 47 1015.0
20260509164405 21 270 3.2 4.8 0.00 0.00 0.00 48 1014.9
20260509164005 20 288 4.8 4.8 0.00 0.00 0.00 48 1.0
20260509163604 19 322 0.0 4.8 0.00 0.00 0.00 49 1015.1
20260509163200 19 27 1.6 4.8 0.00 0.00 0.00 49 1015.0
20260509162759 19 45 3.2 6.4 0.00 0.00 0.00 50 1015.1
20260509162358 19 308 1.6 6.4 0.00 0.00 0.00 50 1015.1
20260509161957 18 87 6.4 6.4 0.00 0.00 0.00 51 1015.1
20260509161556 19 5 1.6 4.8 0.00 0.00 0.00 52 1015.2
20260509161154 18 92 0.0 1.6 0.00 0.00 0.00 52 1015.2
20260509160757 18 144 1.6 1.6 0.00 0.00 0.00 53 1015.2
20260509160355 17 59 3.2 6.4 0.00 0.00 0.00 53 1015.3
20260509155950 17 182 1.6 6.4 0.00 0.00 0.00 53 1015.3
20260509155553 17 193 0.0 1.6 0.00 0.00 0.00 53 1015.2
20260509155149 17 85 1.6 6.4 0.00 0.00 0.00 54 1015.3
20260509153543 16 76 8.0 8.0 0.00 0.00 0.00 54 1015.4
20260509153141 16 78 6.4 8.0 0.00 0.00 0.00 54 1015.3
20260509152740 16 72 6.4 8.0 0.00 0.00 0.00 55 1015.3
20260509152341 16 99 6.4 14.5 0.00 0.00 0.00 55 1015.3
20260509151135 16 135 0.0 4.8 0.00 0.00 0.00 56 1015.2
20260509150333 15 22 1.6 6.4 0.00 0.00 0.00 57 1015.2
20260509145934 16 55 1.6 4.8 0.00 0.00 0.00 57 1015.2
20260509145134 16 233 0.0 1.6 0.00 0.00 0.00 59 1015.1
20260509144727 16 237 0.0 1.6 0.00 0.00 0.00 58 1015.2
20260509143534 15 230 0.0 3.2 0.00 0.00 0.00 58 1015.0
20260509142721 15 182 1.6 1.6 0.00 0.00 0.00 57 1015.1
20260509142319 15 135 0.0 1.6 0.00 0.00 0.00 57 1015.0
20260509140314 14 135 1.6 6.4 0.00 0.00 0.00 58 1015.0
20260509135512 14 81 3.2 6.4 0.00 0.00 0.00 58 1015.0
20260509134708 14 40 4.8 4.8 0.00 0.00 0.00 58 1014.9
20260509134312 14 22 1.6 1.6 0.00 0.00 0.00 58 1015.0
20260509133915 14 333 0.0 3.2 0.00 0.00 0.00 58 1014.9
20260509133103 14 25 1.6 3.2 0.00 0.00 0.00 57 1014.9
20260509132301 14 42 0.0 0.0 0.00 0.00 0.00 57 1014.7
20260509131859 14 78 0.0 0.0 0.00 0.00 0.00 57 1014.6
20260509131457 14 274 0.0 1.6 0.00 0.00 0.00 57 1014.7
20260509130254 14 207 0.0 1.6 0.00 0.00 0.00 57 1014.7
20260509125853 14 200 1.6 3.2 0.00 0.00 0.00 57 1014.7
20260509125451 14 182 0.0 1.6 0.00 0.00 0.00 57 1014.6
20260509125050 14 306 0.0 3.2 0.00 0.00 0.00 57 1014.5
20260509123846 14 94 1.6 3.2 0.00 0.00 0.00 57 1014.6
20260509123445 14 42 1.6 4.8 0.00 0.00 0.00 57 1014.5
20260509122639 14 42 1.6 3.2 0.00 0.00 0.00 57 1014.5
20260509121835 14 60 1.6 3.2 0.00 0.00 0.00 57 1014.5
20260509121436 14 81 0.0 4.8 0.00 0.00 0.00 57 1014.5
20260509120629 14 96 1.6 6.4 0.00 0.00 0.00 57 1014.4
20260509120228 14 81 4.8 4.8 0.00 0.00 0.00 57 1014.3
20260509115827 14 299 0.0 1.6 0.00 0.00 0.00 57 1014.5
20260509115025 14 27 0.0 0.0 0.00 0.00 0.00 57 1014.4
20260509114628 14 235 0.0 1.6 0.00 0.00 0.00 57 1014.4
20260509114222 14 42 0.0 0.0 0.00 0.00 0.00 57 1014.4
20260509113825 14 135 1.6 1.6 0.00 0.00 0.00 57 1014.5
20260509113422 14 135 0.0 4.8 0.00 0.00 0.00 57 1014.5
20260509111413 14 135 1.6 3.2 0.00 0.00 0.00 57 1014.5
20260509105808 14 99 6.4 6.4 0.00 0.00 0.00 57 1014.6
20260509105406 14 135 3.2 3.2 0.00 0.00 0.00 57 1014.6
20260509103804 14 180 1.6 4.8 0.00 0.00 0.00 57 1014.6
20260509103401 14 155 0.0 4.8 0.00 0.00 0.00 57 1014.5
20260509102159 14 137 6.4 11.3 0.00 0.00 0.00 57 1014.6
20260509101354 14 180 0.0 9.7 0.00 0.00 0.00 57 1014.7
20260509100954 14 195 4.8 12.9 0.00 0.00 0.00 57 1014.7
20260509094946 14 135 6.4 8.0 0.00 0.00 0.00 57 1014.8
20260509094143 14 135 4.8 4.8 0.00 0.00 0.00 57 1014.8
20260509093743 14 139 4.8 6.4 0.00 0.00 0.00 57 1014.8
20260509093341 14 135 6.4 8.0 0.00 0.00 0.00 57 1014.8
20260509092940 14 135 4.8 4.8 0.00 0.00 0.00 57 1014.9
20260509091738 14 132 3.2 4.8 0.00 0.00 0.00 58 1014.8
20260509091736 14 132 3.2 4.8 0.00 0.00 0.00 58 1014.8
20260509091334 14 123 3.2 6.4 0.00 0.00 0.00 58 1015.0
20260509090934 14 94 4.8 8.0 0.00 0.00 0.00 58 1014.8
20260509090532 14 85 3.2 4.8 0.00 0.00 0.00 58 1015.0
20260509090131 14 135 4.8 8.0 0.00 0.00 0.00 58 1015.0
20260509085730 14 135 3.2 6.4 0.00 0.00 0.00 58 1014.9
20260509085328 13 99 1.6 4.8 0.00 0.00 0.00 58 1015.0
20260509084124 13 83 1.6 1.6 0.00 0.00 0.00 58 1015.1
20260509083724 13 135 1.6 1.6 0.00 0.00 0.00 58 1015.0
20260509082119 13 135 1.6 3.2 0.00 0.00 0.00 57 1015.4
20260509081720 13 135 0.0 6.4 0.00 0.00 0.00 57 1015.2
20260509081321 13 135 1.6 3.2 0.00 0.00 0.00 57 1015.2
20260509080917 13 200 1.6 1.6 0.00 0.00 0.00 57 1015.3
20260509080513 13 180 0.0 0.0 0.00 0.00 0.00 57 1015.3
20260509080113 13 135 0.0 1.6 0.00 0.00 0.00 57 1015.3
20260509075710 13 81 0.0 1.6 0.00 0.00 0.00 57 1015.3
20260509074507 13 135 3.2 3.2 0.00 0.00 0.00 57 1015.4
20260509074105 13 135 3.2 4.8 0.00 0.00 0.00 57 1015.3
20260509073703 13 135 3.2 3.2 0.00 0.00 0.00 56 1015.4
20260509073302 13 135 3.2 3.2 0.00 0.00 0.00 56 1015.4
20260509072901 13 135 0.0 1.6 0.00 0.00 0.00 56 1015.4
20260509072502 13 135 1.6 3.2 0.00 0.00 0.00 56 1015.4
20260509072059 13 135 1.6 1.6 0.00 0.00 0.00 56 1015.4
20260509071658 13 135 0.0 0.0 0.00 0.00 0.00 56 1015.5
20260509070855 13 42 0.0 1.6 0.00 0.00 0.00 56 1015.5
20260509070053 13 135 1.6 1.6 0.00 0.00 0.00 56 1015.5
20260509065249 13 135 1.6 1.6 0.00 0.00 0.00 56 1015.6
20260509064848 13 85 0.0 1.6 0.00 0.00 0.00 56 1015.6
20260509064447 13 230 0.0 0.0 0.00 0.00 0.00 55 1015.6
20260509064047 13 335 0.0 0.0 0.00 0.00 0.00 55 1015.6